This demonstration page uses our WeatherBlox Daily Observations layout. Learn more.

Hourly Observations for June 9, 2019

Temp ( °F °C ) Dew Point ( °F °C ) Humidity (%) Winds ( mph kmh ) Pressure ( in mb ) Visibility ( mi km ) Precip ( " mm )
12:15 am 00:15 Cloudy with Thunderstorms 65 18.2 64 17.8 98 98 SE 9 15 29.91 1013 4 6.437376 0.18 4.572
12:35 am 00:35 Cloudy with Rain 65 18.5 64 17.6 95 95 E 13 20 29.94 1014 7 11.265408 0.23 5.842
12:55 am 00:55 Cloudy with Light Rain 64 18 64 17.7 98 98 NE 14 22 29.94 1014 10 16.09344 0.27 6.858
1:15 am 01:15 Cloudy with Light Rain 64 17.8 64 17.5 98 98 N 15 24 29.97 1015 10 16.09344 0 0
1:35 am 01:35 Cloudy 63 17 62 16.5 97 97 N 22 35 29.97 1015 10 16.09344 0 0
1:55 am 01:55 Cloudy with Nearby Thunderstorms 62 16.5 61 16 97 97 NNE 17 28 30.03 1017 10 16.09344 0 0
2:15 am 02:15 Cloudy 60 15.5 59 15 97 97 N 28 44 30 1016 10 16.09344 0 0
2:35 am 02:35 Cloudy 58 14.7 57 14.1 96 96 N 23 37 30.03 1017 10 16.09344 0 0
2:55 am 02:55 Cloudy 58 14.2 56 13.5 96 96 N 21 33 30.03 1017 10 16.09344 0 0
3:15 am 03:15 Cloudy 57 13.9 56 13.1 95 95 N 25 41 30.06 1018 10 16.09344 0 0
3:35 am 03:35 Cloudy 56 13.5 55 12.6 94 94 N 31 50 30.06 1018 10 16.09344 0 0
3:55 am 03:55 Cloudy 56 13.2 54 12 93 93 N 26 43 30.09 1019 10 16.09344 0 0
4:15 am 04:15 Cloudy 56 13.1 54 12 93 93 N 23 37 30.09 1019 10 16.09344 0 0
4:35 am 04:35 Cloudy 56 13.1 54 12 93 93 N 23 37 30.12 1020 10 16.09344 0 0
4:55 am 04:55 Cloudy 56 13.1 53 11.9 93 93 N 18 30 30.12 1020 10 16.09344 0 0
5:15 am 05:15 Cloudy 56 13.1 52 11.1 88 88 N 21 33 30.12 1020 10 16.09344 0 0
5:35 am 05:35 Cloudy 55 13 52 11.2 89 89 N 18 30 30.12 1020 10 16.09344 0 0
5:55 am 05:55 Cloudy 55 12.7 53 11.5 92 92 N 21 33 30.12 1020 10 16.09344 0 0
6:15 am 06:15 Cloudy 55 12.7 53 11.9 95 95 N 18 30 30.12 1020 10 16.09344 0 0
6:35 am 06:35 Cloudy 55 12.7 52 11 89 89 N 26 43 30.15 1021 10 16.09344 0 0
6:55 am 06:55 Cloudy 55 12.6 52 11 90 90 N 21 33 30.18 1022 10 16.09344 0 0
7:15 am 07:15 Cloudy 55 12.6 53 11.4 92 92 N 16 26 30.18 1022 10 16.09344 0 0
7:35 am 07:35 Cloudy 55 12.8 53 11.4 91 91 N 14 22 30.21 1023 10 16.09344 0 0
7:55 am 07:55 Cloudy 54 12.4 50 9.8 84 84 N 15 24 30.21 1023 10 16.09344 0 0
8:15 am 08:15 Cloudy 54 12.2 49 9.5 84 84 N 17 28 30.24 1024 10 16.09344 0 0
8:35 am 08:35 Cloudy 54 12.2 49 9.5 84 84 N 17 28 30.24 1024 10 16.09344 0 0
8:55 am 08:55 Cloudy 54 12.1 49 9.6 85 85 N 17 28 30.24 1024 10 16.09344 0 0
9:15 am 09:15 Cloudy 54 12 49 9.6 85 85 N 17 28 30.24 1024 10 16.09344 0 0
9:35 am 09:35 Cloudy with Light Rain 54 12 50 10 88 88 N 16 26 30.24 1024 10 16.09344 0 0
9:55 am 09:55 Cloudy 54 12.4 50 9.8 84 84 N 17 28 30.24 1024 10 16.09344 0 0
10:15 am 10:15 Cloudy 54 12.4 50 9.9 85 85 N 16 26 30.27 1025 10 16.09344 0 0
10:35 am 10:35 Cloudy 55 12.7 50 10 84 84 N 13 20 30.27 1025 10 16.09344 0 0
10:55 am 10:55 Cloudy 55 13 49 9.5 79 79 NNW 18 30 30.27 1025 10 16.09344 0 0
11:15 am 11:15 Cloudy 57 14 50 10.1 78 78 N 16 26 30.27 1025 10 16.09344 0 0
11:35 am 11:35 Cloudy 58 14.3 49 9.5 73 73 NNW 17 28 30.27 1025 10 16.09344 0 0
11:55 am 11:55 Cloudy 58 14.3 49 9.3 72 72 NNW 20 31 30.3 1026 10 16.09344 0 0
12:15 pm 12:15 Cloudy 58 14.5 48 8.9 69 69 N 18 30 30.3 1026 10 16.09344 0 0
12:35 pm 12:35 Cloudy 59 15 48 9 68 68 NNW 18 30 30.3 1026 10 16.09344 0 0
12:55 pm 12:55 Cloudy 59 15 48 9.1 68 68 N 17 28 30.3 1026 10 16.09344 0 0
1:15 pm 13:15 Cloudy 60 15.4 48 8.7 65 65 N 17 28 30.3 1026 10 16.09344 0 0
1:35 pm 13:35 Mostly Cloudy 62 16.6 48 9 61 61 NNW 20 31 30.27 1025 10 16.09344 0 0
1:55 pm 13:55 Mostly Cloudy 63 17.1 49 9.2 60 60 N 16 26 30.27 1025 10 16.09344 0 0
2:15 pm 14:15 Partly Cloudy 63 17.2 47 8.5 57 57 NNW 16 26 30.27 1025 10 16.09344 0 0
2:35 pm 14:35 Mostly Cloudy 64 17.8 48 9.1 57 57 NNW 16 26 30.27 1025 10 16.09344 0 0
2:55 pm 14:55 Mostly Cloudy 64 17.7 48 9 57 57 N 17 28 30.27 1025 10 16.09344 0 0
3:15 pm 15:15 Partly Cloudy 64 17.5 46 7.8 53 53 NNW 17 28 30.27 1025 10 16.09344 0 0
3:35 pm 15:35 Sunny 64 17.5 47 8.5 56 56 NNW 17 28 30.27 1025 10 16.09344 0 0
3:55 pm 15:55 Partly Cloudy 64 18 47 8.3 53 53 N 15 24 30.27 1025 10 16.09344 0 0
4:15 pm 16:15 Partly Cloudy 65 18.5 47 8.6 53 53 N 14 22 30.3 1026 10 16.09344 0 0
4:35 pm 16:35 Partly Cloudy 66 18.7 48 8.8 53 53 N 17 28 30.3 1026 10 16.09344 0 0
4:55 pm 16:55 Partly Cloudy 66 18.8 48 8.8 52 52 N 13 20 30.3 1026 10 16.09344 0 0
5:15 pm 17:15 Partly Cloudy 67 19.3 48 9 51 51 N 14 22 30.27 1025 10 16.09344 0 0
5:35 pm 17:35 Partly Cloudy 66 19 45 7.4 47 47 NNW 15 24 30.3 1026 10 16.09344 0 0
5:55 pm 17:55 Partly Cloudy 66 19.1 46 7.9 48 48 N 12 19 30.24 1024 10 16.09344 0 0
6:15 pm 18:15 Partly Cloudy 66 18.9 46 7.8 49 49 N 13 20 30.27 1025 10 16.09344 0 0
6:35 pm 18:35 Partly Cloudy 67 19.3 46 7.9 48 48 N 13 20 30.24 1024 10 16.09344 0 0
6:55 pm 18:55 Sunny 67 19.3 45 7.2 46 46 N 14 22 30.24 1024 10 16.09344 0 0
7:15 pm 19:15 Sunny 66 19 46 7.9 49 49 N 14 22 30.24 1024 10 16.09344 0 0
7:35 pm 19:35 Sunny 66 18.7 47 8.2 51 51 NNE 14 22 30.27 1025 10 16.09344 0 0
7:55 pm 19:55 Sunny 65 18.3 46 8 51 51 N 13 20 30.27 1025 10 16.09344 0 0
8:15 pm 20:15 Sunny 64 17.6 48 8.9 57 57 N 8 13 30.3 1026 10 16.09344 0 0
8:35 pm 20:35 Sunny 62 16.8 48 9 60 60 N 8 13 30.3 1026 10 16.09344 0 0
8:55 pm 20:55 Sunny 60 15.3 49 9.3 68 68 NNE 6 9 30.33 1027 10 16.09344 0 0
9:15 pm 21:15 Clear 58 14.4 49 9.4 72 72 NNE 7 11 30.33 1027 10 16.09344 0 0
9:35 pm 21:35 Clear 56 13.6 49 9.2 75 75 NNE 5 7 30.33 1027 10 16.09344 0 0
9:55 pm 21:55 Clear 55 12.6 49 9.3 80 80 N 6 9 30.33 1027 10 16.09344 0 0
10:15 pm 22:15 Clear 55 12.8 48 9 78 78 N 5 7 30.36 1028 10 16.09344 0 0
10:35 pm 22:35 Clear 55 13 48 8.7 75 75 Calm 30.36 1028 10 16.09344 0 0
10:55 pm 22:55 Clear 54 12 49 9.6 85 85 Calm 30.39 1029 10 16.09344 0 0
11:15 pm 23:15 Clear 54 12.3 48 8.9 80 80 Calm 30.39 1029 10 16.09344 0 0
11:35 pm 23:35 Clear 53 11.8 47 8.6 81 81 WNW 3 6 30.39 1029 10 16.09344 0 0
11:55 pm 23:55 Clear 52 11.1 48 9 87 87 Calm 30.39 1029 10 16.09344 0 0

Powered by AerisWeather